Date,TemperatureHighF,TemperatureAvgF,TemperatureLowF,DewpointHighF,DewpointAvgF,DewpointLowF,HumidityHigh,HumidityAvg,HumidityLow,PressureMaxIn,PressureMinIn,WindSpeedMaxMPH,WindSpeedAvgMPH,GustSpeedMaxMPH,PrecipitationSumIn
2013-10-1,85.5,71.8,62.6,70.7,65.4,61.1,97,82,51,29.99,29.89,13,2,14,0.00
2013-10-2,88.5,74.5,65.2,71.4,67.6,62.3,99,82,43,30.02,29.90,15,2,15,0.00
2013-10-3,85.8,75.4,67.2,70.4,68.2,64.5,94,80,57,29.92,29.80,15,4,15,0.00
2013-10-4,88.8,76.9,68.6,70.8,68.7,65.6,97,78,48,29.92,29.82,15,4,15,0.00
2013-10-5,75.2,63.1,50.1,70.6,60.7,48.9,96,92,83,29.92,29.84,17,4,17,0.21
2013-10-6,55.4,49.3,42.7,48.9,44.2,40.6,97,84,63,29.93,29.84,22,5,22,0.05
2013-10-7,71.3,56.7,47.3,50.8,47.5,45.5,96,74,41,30.13,29.93,13,2,13,0.00
2013-10-8,76.5,60.1,43.9,54.2,47.8,43.3,99,69,36,30.19,30.09,13,2,13,0.00
2013-10-9,75.9,60.0,42.7,51.3,47.6,41.4,98,68,35,30.17,30.06,10,1,10,0.00
2013-10-10,79.7,63.7,49.2,59.5,53.7,48.6,99,74,40,30.13,29.97,13,1,13,0.00
2013-10-11,80.3,66.6,54.7,62.0,58.3,53.8,99,77,50,29.99,29.84,18,3,21,0.01
2013-10-12,73.8,64.5,51.9,61.0,52.2,41.1,91,67,33,30.21,29.89,14,3,14,0.00
2013-10-13,72.5,55.6,39.8,45.9,37.9,31.8,97,58,23,30.40,30.21,12,2,12,0.00
2013-10-14,68.8,56.3,43.9,54.9,42.4,36.3,86,61,39,30.34,30.02,13,2,13,0.03
2013-10-15,65.5,59.1,49.0,61.1,55.3,43.7,97,87,67,30.02,29.88,15,3,16,0.33
2013-10-16,57.4,48.3,41.5,44.4,42.4,39.3,93,81,60,30.07,29.99,16,2,16,0.00
2013-10-17,64.4,52.7,45.7,49.4,44.3,40.4,97,76,44,30.01,29.90,17,3,17,0.07
2013-10-18,56.2,47.0,38.8,44.3,39.8,36.2,97,78,49,30.08,29.94,15,3,15,0.05
2013-10-19,57.8,45.6,36.1,41.9,38.2,35.3,98,78,45,30.05,29.94,20,4,20,0.07
2013-10-20,71.8,56.2,43.5,45.0,40.9,38.3,82,60,32,29.96,29.82,19,4,20,0.00
2013-10-21,54.6,47.1,34.0,44.6,38.0,31.1,95,72,46,30.07,29.90,16,3,16,0.00
2013-10-22,62.9,44.6,33.1,48.2,38.5,31.8,96,80,52,30.06,29.80,20,5,25,0.03
2013-10-23,47.2,38.8,30.3,37.6,33.0,27.3,96,81,48,30.17,30.04,15,3,15,0.00
2013-10-24,47.1,38.8,25.9,37.1,29.7,23.6,95,72,45,30.44,30.15,20,4,20,0.01
2013-10-25,56.0,38.8,23.3,33.0,26.4,22.3,97,66,30,30.54,30.20,13,2,14,0.00
2013-10-26,61.9,48.3,33.0,43.3,33.1,26.1,85,57,35,30.20,30.06,17,4,18,0.00
2013-10-27,61.8,41.6,24.2,34.5,28.4,23.2,97,65,29,30.15,30.01,11,1,11,0.00
2013-10-28,72.0,50.4,30.5,46.1,36.3,27.4,97,64,23,30.22,30.06,8,1,10,0.00
2013-10-29,59.0,53.2,44.6,58.4,50.1,39.6,98,89,66,30.22,30.03,13,2,13,0.26
2013-10-30,70.5,64.2,58.7,67.0,63.0,58.1,99,96,87,30.03,29.75,18,3,19,0.22
2013-10-31,64.6,57.3,45.2,63.1,56.2,44.3,99,96,91,29.76,29.40,19,4,19,1.42